This is the latest recevied weather packets stored in our database for station/object OK3MS-5. If no packets are shown the sender has not sent any weather packets the latest 10 day(s).
| Time | Temp. | Humidity | Pressure | Rain* | Wind** | Luminosity | Snow |
|---|---|---|---|---|---|---|---|
| 1787923803 | 29.44° C | 44% | 1008.1 hPa | 0 mm | - | 473 W/m² | - |
| 1787923503 | 29.44° C | 44% | 1008.1 hPa | 0 mm | - | 481 W/m² | - |
| 1787923203 | 29.44° C | 44% | 1008.1 hPa | 0 mm | - | 488 W/m² | - |
| 1787922908 | 29.44° C | 44% | 1008.2 hPa | 0 mm | - | 498 W/m² | - |
| 1787922604 | 29.44° C | 44% | 1008.3 hPa | 0 mm | - | 512 W/m² | - |
| 1787922305 | 29.44° C | 43% | 1008.2 hPa | 0 mm | - | 520 W/m² | - |
| 1787922004 | 29.44° C | 44% | 1008.3 hPa | 0 mm | - | 527 W/m² | - |
| 1787921703 | 29.44° C | 43% | 1008.2 hPa | 0 mm | - | 535 W/m² | - |
| 1787921402 | 29.44° C | 44% | 1008.3 hPa | 0 mm | - | 543 W/m² | - |
| 1787921104 | 29.44° C | 44% | 1008.1 hPa | 0 mm | - | 555 W/m² | - |
| 1787920803 | 29.44° C | 44% | 1008.2 hPa | 0 mm | - | 572 W/m² | - |
| 1787920504 | 29.44° C | 44% | 1008.3 hPa | 0 mm | - | 601 W/m² | - |
| 1787920204 | 29.44° C | 44% | 1008.4 hPa | 0 mm | - | 625 W/m² | - |
| 1787919904 | 28.89° C | 45% | 1008.3 hPa | 0 mm | - | 631 W/m² | - |
| 1787919602 | 28.33° C | 46% | 1008.4 hPa | 0 mm | - | 603 W/m² | - |
| 1787919304 | 28.33° C | 45% | 1008.5 hPa | 0 mm | - | 574 W/m² | - |
| 1787919003 | 28.33° C | 46% | 1008.8 hPa | 0 mm | - | 614 W/m² | - |
| 1787918704 | 27.78° C | 47% | 1009 hPa | 0 mm | - | 616 W/m² | - |
| 1787918403 | 27.78° C | 46% | 1008.7 hPa | 0 mm | - | 598 W/m² | - |
| 1787918104 | 27.78° C | 48% | 1008.7 hPa | 0 mm | - | 611 W/m² | - |
| 1787917802 | 27.78° C | 47% | 1008.8 hPa | 0 mm | - | 507 W/m² | - |
| 1787917503 | 27.22° C | 48% | 1008.7 hPa | 0 mm | - | 591 W/m² | - |
| 1787917205 | 27.22° C | 48% | 1008.9 hPa | 0 mm | - | 587 W/m² | - |
| 1787916904 | 27.22° C | 48% | 1008.9 hPa | 0 mm | - | 562 W/m² | - |
| 1787916606 | 27.22° C | 48% | 1009.1 hPa | 0 mm | - | 546 W/m² | - |
* Rain latest hour (hover to see other rain measurements)
** Current wind speed in m/s (hover to see current wind gust speed)